Date,TemperatureHighF,TemperatureAvgF,TemperatureLowF,DewpointHighF,DewpointAvgF,DewpointLowF,HumidityHigh,HumidityAvg,HumidityLow,PressureMaxIn,PressureMinIn,WindSpeedMaxMPH,WindSpeedAvgMPH,GustSpeedMaxMPH,PrecipitationSumIn
2013-1-1,19.4,10.1,1.4,7.0,3.2,-2.7,84,74,54,30.43,30.26,5,0,10,0.00
2013-1-2,30.9,21.4,9.8,28.2,17.2,4.7,94,84,69,30.27,30.13,6,0,8,0.01
2013-1-3,31.2,21.0,12.1,28.3,16.8,9.5,91,84,72,30.46,30.25,12,2,21,0.00
2013-1-4,37.9,24.7,12.1,26.3,19.5,9.7,94,82,59,30.40,30.24,4,0,8,0.10
2013-1-5,40.1,30.2,22.0,34.6,26.0,19.7,95,84,76,30.25,30.00,11,1,21,0.11
2013-1-6,29.3,22.9,15.4,21.7,17.6,11.0,86,80,69,30.39,30.17,13,2,23,0.00
2013-1-7,45.7,33.3,24.4,32.4,26.3,20.3,92,76,56,30.28,30.06,9,1,18,0.02
2013-1-8,47.2,36.5,27.6,35.7,30.8,24.8,91,80,63,30.17,29.89,6,1,12,0.00
2013-1-9,46.6,37.2,28.5,34.9,31.5,26.5,95,81,61,30.49,30.14,4,0,13,0.00
2013-1-10,42.2,36.5,31.5,37.2,31.9,27.1,97,84,58,30.44,29.77,8,1,12,0.07
2013-1-11,53.1,44.9,36.5,46.9,42.6,35.7,98,92,77,29.78,29.50,9,2,17,0.02
2013-1-12,51.5,25.2,15.4,44.5,18.0,7.4,89,74,66,30.16,29.58,12,3,20,0.00
2013-1-13,20.0,15.0,9.3,12.0,7.6,2.7,77,72,66,30.43,30.12,13,3,20,0.00
2013-1-14,31.2,18.9,8.9,15.2,10.2,5.8,89,70,45,30.58,30.43,4,0,8,0.00
2013-1-15,34.9,25.6,15.6,18.1,14.7,11.2,85,64,46,30.47,30.13,5,0,10,0.00
2013-1-16,48.5,34.9,22.2,36.6,26.8,13.5,88,72,61,30.27,29.95,11,2,16,0.00
2013-1-17,36.7,27.6,18.1,27.6,19.1,12.2,87,71,48,30.52,30.26,7,1,12,0.00
2013-1-18,55.2,42.3,27.6,36.3,31.6,22.3,85,67,47,30.41,29.92,10,2,22,0.00
2013-1-19,53.2,41.0,19.3,36.4,30.1,6.3,81,66,41,30.33,29.85,19,4,37,0.00
2013-1-20,19.2,14.0,8.3,11.4,7.4,3.6,84,75,58,30.48,30.33,11,2,18,0.00
2013-1-21,10.9,5.8,-1.7,4.0,-1.8,-10.2,81,70,63,30.57,30.45,14,4,21,0.00
2013-1-22,18.3,11.8,4.5,7.3,1.8,-1.9,76,64,52,30.55,30.40,5,0,9,0.00
2013-1-23,29.0,18.2,6.7,19.8,9.7,-1.5,81,69,60,30.63,30.27,14,3,23,0.00
2013-1-24,21.7,12.6,4.6,8.8,0.2,-5.0,70,58,46,30.71,30.31,9,1,13,0.00
2013-1-25,39.4,26.0,15.1,26.7,16.5,4.0,83,67,56,30.38,30.18,12,2,23,0.00
2013-1-26,36.6,23.6,10.1,18.5,10.5,3.8,77,58,41,30.44,30.22,5,1,12,0.00
2013-1-27,39.1,35.3,33.0,38.6,31.2,18.3,98,86,54,30.22,29.79,6,1,10,0.26
2013-1-28,49.2,39.0,35.3,48.9,38.5,34.8,99,98,97,29.97,29.62,6,1,10,0.21
2013-1-29,57.7,39.6,32.8,57.3,38.3,31.0,99,95,91,29.73,29.55,15,3,24,0.01
2013-1-30,32.7,23.7,15.1,31.1,21.4,11.0,96,91,82,29.95,29.55,18,7,32,0.00
2013-1-31,15.0,7.2,0.6,10.9,1.6,-5.5,86,77,71,30.49,29.95,14,5,25,0.00
2013-2-1,26.2,8.2,-4.3,19.6,1.8,-8.2,84,75,63,30.52,30.15,7,1,15,0.00
2013-2-2,28.5,22.2,17.2,25.6,16.9,10.0,96,80,61,30.29,30.06,12,2,22,0.01
2013-2-3,34.9,27.4,18.1,29.3,19.4,14.2,97,72,51,30.27,29.86,18,3,29,0.08
2013-2-4,34.1,25.4,20.1,29.1,20.8,17.1,89,83,76,30.09,29.82,10,2,17,0.00
2013-2-5,44.7,32.4,22.7,41.1,29.0,19.4,93,87,87,30.16,29.88,10,2,22,0.04
2013-2-6,45.1,38.1,25.6,35.9,32.2,22.5,94,80,69,30.19,29.97,7,1,13,0.00
2013-2-7,41.4,34.7,28.8,38.5,32.7,26.2,96,92,78,30.27,29.93,14,3,20,0.28
2013-2-8,30.2,28.2,25.2,26.5,25.1,22.5,91,88,85,30.43,30.27,9,2,15,0.00
2013-2-9,38.5,32.6,28.4,33.5,29.6,25.8,95,89,81,30.33,29.88,8,2,14,0.13
2013-2-10,51.7,38.8,33.2,47.4,35.5,26.1,98,88,66,29.88,29.31,10,3,22,0.12
2013-2-11,33.3,31.2,28.8,26.5,24.7,23.1,81,77,73,30.20,29.66,16,5,29,0.00
2013-2-12,44.6,33.8,24.3,29.9,26.1,21.2,90,74,54,30.22,29.93,6,1,12,0.00
2013-2-13,51.4,38.6,26.7,34.3,29.3,23.9,92,71,46,29.94,29.73,8,1,12,0.00
2013-2-14,42.6,36.7,25.1,33.2,29.1,16.0,84,74,58,30.25,29.76,16,5,22,0.00
2013-2-15,29.0,23.3,17.7,16.3,13.9,9.8,81,68,54,30.40,30.25,10,3,16,0.00
2013-2-16,36.4,24.6,12.5,21.1,16.1,9.9,91,71,47,30.39,30.17,5,0,8,0.00
2013-2-17,47.6,34.9,22.1,28.9,24.2,18.3,86,66,46,30.17,29.70,9,2,16,0.00
2013-2-18,43.4,32.2,18.1,35.6,25.4,10.2,91,76,67,30.00,29.61,18,5,32,0.00
2013-2-19,23.6,17.3,9.8,11.0,6.8,2.6,79,63,48,30.47,30.00,18,7,31,0.00
2013-2-20,24.2,14.9,3.0,12.8,4.3,-2.6,79,63,48,30.55,30.39,7,1,14,0.00
2013-2-21,26.6,23.0,19.5,23.7,17.7,12.9,94,80,65,30.42,29.91,11,3,20,0.00
2013-2-22,30.5,25.2,23.1,25.7,21.9,18.2,94,87,79,30.07,29.85,11,2,17,0.17
2013-2-23,34.9,24.9,13.4,22.8,18.5,11.0,92,77,59,30.06,29.98,4,0,8,0.14
2013-2-24,43.1,30.3,16.7,30.6,23.9,14.5,93,78,59,30.14,30.00,3,0,5,0.07
2013-2-25,41.2,35.3,28.8,32.8,29.5,26.0,91,80,61,30.14,29.95,6,1,10,0.00
2013-2-26,33.3,31.8,29.7,31.4,29.6,27.3,96,92,81,29.95,29.76,11,4,20,0.03
2013-2-27,32.2,29.6,26.5,28.7,27.1,23.1,95,90,82,30.06,29.84,14,4,22,0.06
2013-2-28,32.9,28.1,23.7,27.4,24.2,20.4,90,85,77,30.24,30.05,11,4,16,0.03
2013-3-1,31.2,27.6,25.9,25.0,22.8,18.4,90,82,73,30.40,30.23,8,3,15,0.01
2013-3-2,32.7,25.5,17.5,23.9,19.6,14.7,89,78,66,30.41,30.25,9,2,14,0.04
2013-3-3,37.0,29.6,23.4,26.0,21.7,18.5,86,73,56,30.25,29.96,8,2,15,0.05
2013-3-4,40.0,33.8,29.4,32.5,29.9,26.0,94,86,73,30.01,29.83,7,2,14,0.02
2013-3-5,33.0,30.3,27.4,31.6,26.2,22.4,96,85,74,30.36,29.99,16,6,26,0.01
2013-3-6,32.5,26.6,19.5,23.8,21.4,17.0,91,81,67,30.50,30.36,11,3,18,0.01
2013-3-7,36.7,27.1,17.7,27.1,22.1,15.5,93,82,66,30.45,30.32,7,1,12,0.01
2013-3-8,45.4,35.9,26.1,35.8,30.0,23.1,92,80,62,30.36,30.08,8,2,14,0.17
2013-3-9,42.2,39.9,37.7,41.4,38.6,35.5,97,95,87,30.08,29.67,8,2,14,0.58
2013-3-10,39.9,35.3,32.2,39.4,34.5,31.3,98,97,96,29.86,29.67,11,4,22,0.46
2013-3-11,32.1,28.0,24.8,31.3,25.6,21.4,97,91,83,30.02,29.79,13,4,23,0.00
2013-3-12,35.7,27.4,19.7,29.0,22.9,17.5,94,83,74,30.33,30.02,15,4,29,0.01
2013-3-13,34.9,26.4,17.9,23.1,18.7,14.7,87,73,50,30.53,30.33,10,2,16,0.06
2013-3-14,51.2,38.5,28.5,37.4,30.5,21.0,92,74,55,30.39,30.11,10,1,13,0.01
2013-3-15,59.9,42.0,30.3,46.7,37.4,28.7,96,85,57,30.12,29.75,6,1,13,0.00
2013-3-16,38.4,33.7,28.6,36.3,28.3,22.3,93,81,68,30.26,29.83,13,5,23,0.00
2013-3-17,40.7,32.0,23.2,29.9,24.6,18.8,84,74,59,30.26,29.90,9,3,16,0.00
2013-3-18,35.0,30.7,23.5,33.6,25.0,15.2,96,80,63,30.06,29.78,19,4,35,0.12
2013-3-19,38.7,27.4,18.3,23.6,16.6,9.6,81,64,45,30.33,30.05,11,4,18,0.01
2013-3-20,27.9,22.8,15.9,20.5,12.3,6.3,80,64,50,30.42,30.22,16,6,25,0.00
2013-3-21,36.1,24.6,12.9,19.9,13.5,8.2,84,64,42,30.23,30.05,7,1,13,0.00
2013-3-22,38.6,30.3,20.5,26.8,20.1,15.6,84,67,46,30.14,30.05,7,1,12,0.00
2013-3-23,40.1,32.8,28.8,30.0,24.8,18.6,92,73,47,30.19,30.06,8,2,13,0.00
2013-3-24,32.5,30.3,28.1,29.4,27.7,25.1,94,90,75,30.09,29.96,11,4,20,0.01
2013-3-25,37.0,31.8,28.3,28.2,25.6,21.8,95,79,56,30.33,30.03,13,5,23,0.02
2013-3-26,39.4,31.3,23.3,26.8,23.0,19.4,85,72,55,30.42,30.33,11,2,17,0.02
2013-3-27,47.2,35.9,24.6,30.9,26.0,21.4,90,69,45,30.41,30.31,6,1,10,0.00
2013-3-28,57.6,43.6,30.5,37.9,32.4,27.3,89,67,45,30.36,30.25,6,1,12,0.00
2013-3-29,63.6,49.2,33.6,39.5,35.3,31.0,92,62,36,30.32,30.14,9,1,14,0.00
2013-3-30,60.7,50.7,45.0,53.5,44.9,36.6,95,81,59,30.14,29.89,9,1,14,0.10
2013-3-31,54.2,43.4,34.9,43.3,34.3,20.9,97,73,34,30.15,29.92,16,5,29,0.00
2013-4-1,40.9,32.1,24.3,22.8,19.8,17.4,78,61,42,30.36,30.15,11,4,18,0.00
2013-4-2,47.9,35.0,21.6,26.1,22.2,18.3,90,63,34,30.41,30.35,11,1,16,0.00
2013-4-3,51.9,39.2,28.5,25.7,23.5,20.9,80,56,34,30.47,30.30,6,1,10,0.00
2013-4-4,64.7,47.8,30.6,41.2,31.0,21.8,74,54,34,30.31,30.07,11,2,17,0.00
2013-4-5,61.2,49.2,34.3,38.8,32.7,28.6,83,56,32,30.23,29.86,9,2,16,0.00
2013-4-6,69.3,58.9,49.9,50.2,44.4,38.6,78,59,49,29.86,29.56,13,3,23,0.00
2013-4-7,67.7,51.5,35.3,53.6,42.2,33.1,96,73,45,29.97,29.68,6,1,12,0.00
2013-4-8,74.3,62.0,48.4,59.0,53.8,46.8,97,76,52,29.80,29.64,6,0,14,0.09
2013-4-9,63.5,53.3,42.8,60.5,51.8,41.7,97,94,86,29.95,29.70,10,3,20,0.26
2013-4-10,43.6,41.0,39.8,42.5,39.8,38.6,97,95,93,29.97,29.74,13,2,26,1.03
2013-4-11,42.0,39.4,37.2,41.0,37.9,34.7,98,94,86,29.78,29.64,4,0,12,0.29
2013-4-12,41.2,37.4,35.1,36.1,32.6,27.1,95,83,71,30.01,29.66,14,4,22,0.01
2013-4-13,53.5,42.9,30.8,38.5,32.2,25.6,84,67,50,30.06,29.86,10,2,15,0.00
2013-4-14,68.5,53.6,43.9,56.1,47.3,37.8,95,80,59,29.85,29.44,10,2,31,0.25
2013-4-15,49.6,42.4,38.4,46.1,35.8,30.5,95,78,61,30.11,29.67,10,2,18,0.01
2013-4-16,51.5,42.6,31.7,40.9,33.5,28.8,92,71,54,30.30,30.08,10,2,16,0.14
2013-4-17,48.2,44.0,41.3,47.7,41.1,36.5,98,90,67,30.24,29.58,11,3,25,2.52
2013-4-18,43.6,39.1,35.0,42.8,37.6,31.3,97,94,86,29.78,29.58,17,5,26,0.55
2013-4-19,44.7,37.2,31.4,31.5,28.1,24.9,87,71,48,30.13,29.75,18,6,31,0.00
2013-4-20,49.7,38.9,26.7,30.2,25.5,20.4,89,62,34,30.34,30.14,6,1,14,0.00
2013-4-21,69.8,55.0,42.8,49.2,39.2,28.8,81,57,32,30.30,30.08,10,3,24,0.05
2013-4-22,67.5,53.7,38.4,51.1,47.8,36.6,96,82,49,30.19,29.93,11,2,20,0.40
2013-4-23,42.6,37.0,33.9,36.5,30.4,23.8,93,78,57,30.20,30.07,15,6,24,0.01
2013-4-24,56.2,43.3,27.9,39.0,29.7,23.8,89,62,32,30.23,30.06,13,2,25,0.00
2013-4-25,63.2,49.3,33.1,38.6,33.7,28.9,90,58,34,30.32,30.15,9,1,17,0.00
2013-4-26,66.8,58.3,50.5,52.8,46.3,38.4,84,65,53,30.22,30.11,10,2,23,0.00
2013-4-27,68.8,56.4,45.1,52.1,47.6,43.1,95,74,50,30.25,30.00,6,1,14,0.00
2013-4-28,77.3,61.9,44.9,56.4,50.5,43.0,95,69,43,30.02,29.76,7,1,13,0.00
2013-4-29,81.7,68.2,56.0,63.4,57.2,51.9,88,69,47,29.79,29.53,7,1,15,0.00
2013-4-30,85.2,74.9,61.1,64.0,56.4,47.1,80,54,42,29.85,29.55,11,3,22,0.03
2013-5-1,61.1,50.8,40.7,49.6,42.4,36.1,85,73,62,30.35,29.85,16,7,26,0.00
2013-5-2,41.9,35.6,34.1,37.7,34.2,32.9,96,95,83,30.50,30.32,15,6,30,1.65
2013-5-3,35.2,34.4,33.7,33.9,33.3,32.8,97,96,91,30.41,30.02,11,3,20,0.56
2013-5-4,48.1,41.5,35.0,47.0,40.5,33.7,98,96,95,30.12,29.94,11,3,18,0.72
2013-5-5,61.4,50.7,43.7,56.1,48.4,42.8,97,92,80,30.16,30.08,9,2,15,0.02
2013-5-6,74.7,59.2,46.5,58.6,50.2,41.2,97,75,43,30.13,30.02,7,2,13,0.00
2013-5-7,78.8,64.7,49.0,54.2,49.9,43.3,96,63,31,30.08,29.97,5,0,10,0.00
2013-5-8,80.7,62.2,47.7,76.1,55.7,46.9,97,80,54,30.04,29.83,5,0,12,0.10
2013-5-9,71.2,61.1,54.9,62.0,57.5,52.0,97,88,61,29.94,29.84,11,2,20,0.67
2013-5-10,67.2,56.1,49.4,54.5,49.8,46.7,94,81,57,30.06,29.94,10,3,18,0.00
2013-5-11,57.9,52.7,43.4,48.4,33.3,21.7,95,51,27,30.24,29.98,18,5,30,0.00
2013-5-12,62.4,49.5,36.3,33.7,28.3,23.6,72,47,24,30.31,30.16,11,2,22,0.00
2013-5-13,77.5,60.8,40.8,52.8,43.1,32.1,76,54,33,30.18,29.85,8,1,20,0.00
2013-5-14,95.3,78.2,60.8,69.0,58.7,52.1,84,55,32,29.85,29.59,8,1,21,0.00
2013-5-15,82.5,73.1,63.4,57.0,47.4,38.1,59,42,22,29.90,29.73,9,1,16,0.00
2013-5-16,82.3,71.8,60.3,68.7,60.0,49.0,77,67,52,29.91,29.78,5,0,10,0.00
2013-5-17,81.7,72.0,63.7,66.9,62.8,61.0,92,74,52,29.93,29.82,6,0,14,0.00
2013-5-18,83.8,73.2,61.3,69.2,63.8,59.3,95,74,53,29.94,29.75,5,0,12,0.00
2013-5-19,87.5,73.6,61.0,70.2,63.9,59.4,97,74,42,29.79,29.51,15,1,22,1.63
2013-5-20,79.3,67.2,59.8,65.6,61.1,58.9,97,83,55,29.67,29.53,9,1,20,0.47
2013-5-21,72.0,63.4,57.2,60.2,55.0,49.5,97,76,53,29.69,29.56,7,0,20,0.00
2013-5-22,63.4,58.3,54.2,58.6,53.8,50.8,94,85,78,29.91,29.66,9,1,13,0.03
2013-5-23,71.0,60.7,53.0,63.9,50.2,38.1,94,72,41,30.28,29.91,9,2,16,0.01
2013-5-24,71.2,61.1,48.0,54.0,48.7,42.8,83,65,46,30.37,30.16,7,1,14,0.00
2013-5-25,61.1,55.6,52.6,56.1,52.2,47.5,96,89,61,30.25,30.11,7,1,15,0.63
2013-5-26,61.7,57.2,52.8,60.0,54.8,50.5,97,92,88,30.16,29.91,12,1,20,0.67
2013-5-27,75.1,65.8,58.8,66.3,61.8,57.9,98,88,67,30.01,29.69,14,0,20,1.03
2013-5-28,80.8,70.8,63.2,69.9,65.5,62.3,98,84,61,29.76,29.61,7,0,12,0.66
2013-5-29,81.7,70.0,64.7,73.0,65.5,59.7,97,86,71,29.79,29.65,6,0,16,1.03
2013-5-30,73.1,68.5,63.6,68.1,63.7,60.3,94,85,75,29.68,29.56,7,1,20,0.10
2013-5-31,78.9,69.3,60.8,69.0,63.4,56.3,97,82,63,29.70,29.62,8,1,22,0.00
2013-6-1,70.3,63.0,55.8,63.8,58.4,52.1,95,85,71,29.94,29.62,10,1,20,0.14
2013-6-2,66.3,58.2,51.7,52.2,48.3,45.1,85,70,52,30.09,29.94,12,2,26,0.01
2013-6-3,73.3,61.2,47.0,55.0,50.6,45.6,97,71,47,30.10,29.94,5,0,10,0.00
2013-6-4,67.1,62.0,56.3,63.1,57.7,52.5,95,86,72,30.07,29.95,5,0,13,0.79
2013-6-5,69.8,64.2,58.4,63.2,60.2,53.9,98,87,68,30.01,29.92,7,1,12,0.75
2013-6-6,80.7,61.8,51.8,59.1,54.5,50.4,97,79,58,30.00,29.83,9,2,16,0.01
2013-6-7,69.5,60.4,51.5,58.0,53.3,50.1,97,79,55,30.03,29.93,8,1,13,0.00
2013-6-8,74.0,63.3,52.8,62.8,57.1,51.0,96,81,58,29.95,29.77,4,0,14,0.23
2013-6-9,73.7,65.7,61.7,65.0,62.2,60.3,97,89,69,29.79,29.70,6,0,13,0.21
2013-6-10,79.4,67.3,59.7,67.5,62.8,58.6,98,87,63,29.91,29.76,5,0,10,0.01
2013-6-11,86.2,75.3,64.2,75.0,69.0,62.6,96,82,65,29.90,29.71,4,0,12,0.00
2013-6-12,90.9,77.3,66.3,78.5,70.0,58.3,96,79,58,29.87,29.62,15,2,28,0.17
2013-6-13,83.0,72.0,62.0,65.0,59.4,54.9,85,66,41,30.05,29.87,9,1,17,0.00
2013-6-14,77.2,68.4,64.4,68.8,62.4,58.7,96,82,65,30.08,29.84,7,0,14,0.77
2013-6-15,80.5,71.6,64.0,73.4,67.4,62.9,97,87,69,30.03,29.85,8,0,16,0.12
2013-6-16,86.3,75.2,67.4,70.2,61.9,48.9,95,68,31,29.97,29.90,6,0,10,0.00
2013-6-17,89.0,75.7,62.3,65.1,59.5,52.6,95,61,30,29.98,29.89,9,1,17,0.00
2013-6-18,84.8,74.4,61.8,63.3,58.9,53.8,85,60,38,30.00,29.94,7,0,12,0.00
2013-6-19,85.2,74.6,65.7,68.9,65.1,62.1,92,74,51,30.05,29.95,4,0,10,0.00
2013-6-20,88.2,78.7,67.8,73.1,67.0,62.6,85,68,51,30.01,29.88,8,1,17,0.00
2013-6-21,88.2,79.8,74.4,78.4,72.7,67.9,92,79,69,29.95,29.83,7,1,15,0.07
2013-6-22,92.0,82.2,73.7,78.2,72.3,65.0,84,72,58,29.99,29.81,6,0,13,0.00
2013-6-23,81.0,75.3,66.4,72.4,69.7,63.6,95,83,68,29.96,29.78,9,0,14,0.46
2013-6-24,77.8,72.1,68.0,74.0,69.6,66.2,97,92,79,29.98,29.79,5,0,12,0.72
2013-6-25,87.8,78.7,71.2,76.5,72.8,69.9,96,83,58,29.82,29.69,5,0,15,0.00
2013-6-26,91.1,81.4,73.5,79.6,71.6,63.7,94,74,46,29.83,29.63,10,1,21,0.00
2013-6-27,86.3,76.6,67.0,72.2,67.8,64.1,95,75,51,29.94,29.83,7,0,14,0.00
2013-6-28,86.3,78.6,69.8,64.7,59.4,53.1,80,54,35,29.88,29.77,15,3,29,0.00
2013-6-29,76.9,70.9,66.4,66.3,60.0,56.6,92,69,54,29.91,29.76,13,3,24,0.04
2013-6-30,79.0,69.5,61.0,60.5,54.9,47.6,86,62,37,30.08,29.91,8,2,16,0.00
2013-7-1,83.0,70.6,58.2,60.1,54.5,50.3,86,60,36,30.14,30.08,11,1,17,0.00
2013-7-2,85.8,70.7,57.6,62.7,57.9,54.0,92,66,36,30.13,30.01,9,0,14,0.03
2013-7-3,82.3,69.6,57.1,65.2,59.2,52.4,96,72,43,30.06,29.97,4,0,9,0.03
2013-7-4,85.0,73.3,60.6,65.8,60.1,57.3,92,66,40,30.03,29.93,8,0,15,0.00
2013-7-5,88.0,75.9,62.4,67.0,61.4,57.3,84,62,42,29.98,29.89,5,0,15,0.00
2013-7-6,90.1,78.7,67.2,70.3,64.6,60.1,79,63,45,29.94,29.83,11,0,16,0.00
2013-7-7,91.5,80.6,70.8,74.8,68.1,64.2,81,67,46,29.90,29.83,7,0,16,0.00
2013-7-8,87.8,80.4,74.9,75.2,71.8,67.2,91,75,61,29.95,29.88,4,0,9,0.00
2013-7-9,91.8,81.1,73.6,78.5,74.4,70.7,95,81,62,29.95,29.84,10,0,22,0.11
2013-7-10,82.8,76.0,65.6,73.0,60.8,52.2,84,61,38,30.05,29.88,10,2,17,0.02
2013-7-11,83.8,73.3,61.1,61.4,58.4,55.6,87,62,41,30.12,30.00,5,0,10,0.00
2013-7-12,86.3,75.6,64.6,66.1,60.7,56.7,79,61,44,30.08,29.98,9,0,12,0.00
2013-7-13,79.5,72.6,66.1,67.8,60.8,54.1,71,66,60,30.06,29.99,9,0,12,0.00
2013-7-14,85.8,76.3,65.6,68.0,63.4,60.8,85,66,48,30.16,30.05,4,0,12,0.00
2013-7-15,88.5,78.3,67.6,72.8,68.3,62.8,87,72,57,30.21,30.11,6,0,12,0.00
2013-7-16,92.0,81.7,72.0,73.4,70.8,68.3,92,71,49,30.24,30.16,4,0,9,0.00
2013-7-17,94.3,82.7,72.4,73.7,70.6,66.9,91,69,43,30.28,30.15,4,0,10,0.00
2013-7-18,94.7,83.7,73.1,73.2,69.9,66.0,90,66,42,30.17,29.91,6,0,15,0.00
2013-7-19,94.3,83.5,75.7,75.0,67.9,61.8,77,61,38,29.91,29.80,7,0,12,0.00
2013-7-20,89.6,76.4,62.9,64.3,61.3,54.1,92,62,33,29.96,29.84,5,0,10,0.00
2013-7-21,78.7,72.3,66.8,70.1,65.9,61.3,93,81,69,29.92,29.79,4,0,10,0.07
2013-7-22,93.0,77.7,66.1,75.3,68.6,62.5,96,76,48,29.91,29.70,10,0,25,0.41
2013-7-23,76.7,69.1,62.6,66.4,60.7,56.4,97,76,57,30.00,29.79,10,1,15,0.01
2013-7-24,80.0,68.8,57.3,60.0,58.0,55.4,95,71,47,30.07,29.99,7,0,12,0.00
2013-7-25,85.7,73.2,60.4,68.5,63.3,58.7,95,73,50,30.06,29.94,6,0,12,0.00
2013-7-26,78.6,70.8,62.3,67.6,59.0,51.3,95,69,40,30.05,29.93,15,2,23,0.00
2013-7-27,71.0,61.7,53.9,53.4,48.9,44.1,88,65,40,30.10,30.00,10,1,20,0.00
2013-7-28,76.6,63.5,51.7,53.8,49.0,46.1,83,62,37,30.08,30.00,11,1,18,0.00
2013-7-29,73.9,65.3,54.6,60.3,56.1,51.6,92,73,55,30.13,30.06,3,0,12,0.00
2013-7-30,69.8,66.5,62.9,66.6,64.4,59.6,97,93,81,30.09,30.04,3,0,8,0.24
2013-7-31,83.7,72.1,63.6,68.8,64.6,61.9,98,79,51,30.13,30.01,5,0,10,0.00
2013-8-1,88.0,74.0,60.4,66.7,62.3,54.1,97,71,33,30.08,29.89,5,0,10,0.00
2013-8-2,82.5,72.2,65.5,68.3,63.3,56.6,90,74,52,30.01,29.88,9,1,16,0.00
2013-8-3,79.3,70.5,62.2,60.7,56.7,51.1,84,64,41,30.18,30.01,7,0,12,0.00
2013-8-4,81.5,70.6,56.5,59.8,57.5,54.5,95,66,44,30.19,30.04,5,0,14,0.00
2013-8-5,82.4,73.0,64.5,72.5,66.8,59.3,92,81,64,30.04,29.78,5,0,10,0.00
2013-8-6,89.6,76.7,67.5,73.3,69.3,66.2,97,80,51,29.89,29.75,4,0,12,0.00
2013-8-7,81.0,73.7,67.5,67.6,64.7,60.9,96,74,54,30.00,29.78,9,1,16,0.00
2013-8-8,80.2,71.0,60.2,63.2,60.1,55.8,87,70,48,30.02,29.95,5,0,9,0.00
2013-8-9,81.3,72.2,61.9,68.1,61.8,53.5,92,71,44,30.14,30.00,8,1,14,0.00
2013-8-10,84.2,70.6,57.4,63.4,58.9,53.1,95,69,44,30.21,30.08,5,0,9,0.00
2013-8-11,86.5,74.7,62.8,67.7,62.6,58.4,87,68,46,30.12,29.97,6,0,14,0.00
2013-8-12,82.2,72.4,66.2,68.3,62.6,54.2,98,74,44,30.05,29.97,8,1,14,0.46
2013-8-13,77.7,67.5,57.5,61.4,56.2,51.4,94,69,42,30.18,30.05,5,0,12,0.00
2013-8-14,75.6,65.7,54.2,54.3,51.6,47.3,91,63,39,30.24,30.12,5,0,8,0.00
2013-8-15,73.2,64.9,58.7,58.8,54.6,50.8,86,70,53,30.17,30.10,7,0,12,0.00
2013-8-16,78.2,65.8,54.0,58.6,55.0,52.0,94,70,51,30.22,30.14,4,0,9,0.00
2013-8-17,81.5,68.6,55.5,58.1,55.5,51.8,94,66,39,30.23,30.12,4,0,10,0.00
2013-8-18,82.7,69.7,57.8,61.0,57.7,54.8,90,68,42,30.18,30.06,3,0,9,0.00
2013-8-19,85.7,72.5,61.1,67.2,62.6,58.1,90,73,49,30.09,29.97,6,0,13,0.00
2013-8-20,90.5,78.3,68.2,70.7,65.9,61.8,83,67,47,30.00,29.91,6,0,17,0.00
2013-8-21,93.2,80.6,70.6,70.8,67.8,65.7,86,67,42,29.99,29.93,7,0,14,0.00
2013-8-22,81.8,75.4,70.3,70.3,68.2,66.7,93,79,65,30.08,29.97,4,0,8,0.00
2013-8-23,87.6,77.0,68.2,73.7,70.0,66.4,95,80,61,30.10,30.00,4,0,8,0.00
2013-8-24,92.7,80.4,70.8,74.2,69.7,67.5,90,71,49,30.12,30.02,8,0,15,0.00
2013-8-25,94.8,82.4,71.9,72.6,68.5,65.4,81,65,42,30.14,30.03,5,1,15,0.00
2013-8-26,97.5,83.4,71.6,74.0,70.1,66.2,91,67,39,30.08,29.95,5,0,10,0.00
2013-8-27,98.1,85.2,75.7,73.6,63.8,51.6,72,49,43,29.94,29.84,6,1,15,0.00
2013-8-28,98.0,83.8,71.8,69.7,67.0,63.4,81,59,35,29.97,29.89,4,0,7,0.00
2013-8-29,94.5,82.4,70.8,73.6,70.6,66.7,89,69,46,30.01,29.89,3,0,10,0.00
2013-8-30,102.3,85.1,71.3,76.5,71.2,64.0,94,67,30,29.89,29.74,6,0,16,0.00
2013-8-31,90.9,79.0,68.4,72.1,67.5,61.8,93,70,40,29.83,29.74,4,0,9,0.00
2013-9-1,83.5,74.5,66.1,70.7,63.2,56.6,96,70,42,29.95,29.72,10,2,22,1.17
2013-9-2,77.8,66.4,56.8,58.9,55.3,50.8,93,70,42,30.06,29.95,6,1,13,0.00
2013-9-3,80.3,65.8,51.8,60.4,55.8,50.6,96,73,42,30.13,30.03,4,0,7,0.00
2013-9-4,88.6,73.8,59.9,65.2,60.4,55.6,89,66,36,30.15,30.05,2,0,7,0.00
2013-9-5,89.2,77.3,69.2,68.1,65.9,62.3,89,70,42,30.18,30.09,3,0,7,0.00
2013-9-6,90.4,77.2,65.0,67.5,62.9,59.6,89,64,37,30.11,29.88,4,0,12,0.00
2013-9-7,92.7,79.9,71.0,73.0,67.7,61.3,87,67,48,29.90,29.78,7,0,14,0.00
2013-9-8,87.9,78.6,71.1,74.5,71.3,68.9,96,79,62,29.87,29.75,6,1,12,0.00
2013-9-9,98.5,79.3,70.6,71.6,66.8,61.1,94,71,31,29.80,29.72,9,0,15,0.00
2013-9-10,96.2,82.8,70.7,67.4,64.4,61.2,75,56,36,29.93,29.80,5,0,13,0.00
2013-9-11,84.7,77.1,71.0,71.3,67.3,63.3,86,72,55,30.02,29.92,4,0,10,0.00
2013-9-12,78.6,69.8,62.1,63.9,52.3,43.7,84,57,30,30.15,30.01,9,2,15,0.00
2013-9-13,72.8,61.7,51.1,49.4,47.6,44.4,86,62,40,30.22,30.07,4,0,8,0.00
2013-9-14,76.6,63.4,48.4,48.7,44.8,42.0,81,53,33,30.10,29.88,5,0,9,0.00
2013-9-15,68.8,65.1,57.8,63.9,55.9,46.7,92,73,48,30.20,29.82,8,1,16,0.05
2013-9-16,64.6,58.5,53.8,55.3,52.9,50.8,94,82,66,30.34,30.20,5,1,8,0.00
2013-9-17,65.6,59.0,54.1,63.8,57.0,51.6,97,93,80,30.24,29.95,3,0,7,0.87
2013-9-18,88.5,75.7,64.9,72.5,67.7,63.1,96,78,53,29.96,29.69,5,1,12,0.01
2013-9-19,85.5,73.1,63.1,71.4,67.2,57.7,97,83,58,29.83,29.63,44,1,44,1.45
2013-9-20,68.4,60.1,53.4,61.6,52.3,45.2,95,76,57,29.97,29.83,10,1,20,0.00
2013-9-21,70.6,56.3,44.1,50.1,46.1,42.4,95,71,39,30.02,29.88,5,0,10,0.00
2013-9-22,77.0,63.6,51.3,56.8,51.6,46.5,85,66,48,29.96,29.84,4,0,12,0.00
2013-9-23,75.3,64.2,53.7,56.5,51.4,49.3,85,65,43,29.92,29.79,6,0,16,0.00
2013-9-24,72.5,64.0,57.0,63.3,55.2,50.5,80,73,64,29.87,29.80,5,0,14,0.00
2013-9-25,76.4,64.8,53.1,61.5,56.3,50.6,92,75,56,29.91,29.79,5,0,9,0.00
2013-9-26,82.3,70.5,59.7,65.8,60.8,56.1,92,73,52,29.89,29.81,6,0,15,0.00
2013-9-27,85.0,74.1,65.3,66.4,62.4,59.6,88,69,44,29.92,29.81,7,0,15,0.00
2013-9-28,70.5,61.6,49.5,65.6,57.5,47.8,95,87,73,30.02,29.73,8,0,16,0.22
2013-9-29,73.5,58.2,44.2,53.0,47.2,42.9,96,71,38,30.06,29.90,7,0,16,0.00
2013-9-30,75.3,61.8,49.6,58.4,51.6,47.4,93,72,42,29.91,29.71,6,0,17,0.00
2013-10-1,79.3,66.6,56.6,62.4,56.3,47.4,94,72,43,29.93,29.76,5,0,10,0.00
2013-10-2,82.3,70.3,58.8,66.5,57.3,46.8,89,64,52,29.98,29.82,4,0,12,0.00
2013-10-3,76.7,69.5,65.5,67.9,64.2,57.0,95,84,62,29.82,29.71,4,0,12,0.66
2013-10-4,76.0,68.6,62.1,71.2,65.7,60.1,96,91,75,29.84,29.68,10,0,20,1.18
2013-10-5,71.1,54.5,47.5,62.8,43.0,35.8,81,65,49,29.90,29.75,7,0,15,0.00
2013-10-6,49.7,46.8,43.1,47.9,42.4,36.0,96,85,65,29.91,29.72,6,0,15,0.13
2013-10-7,71.5,55.1,40.7,50.5,44.8,39.3,95,72,36,30.04,29.91,5,0,12,0.00
2013-10-8,75.0,60.2,47.4,51.2,47.3,44.1,89,66,35,30.05,29.94,9,0,17,0.00
2013-10-9,73.2,61.0,51.5,55.0,49.8,46.6,89,69,43,30.07,29.99,8,0,10,0.00
2013-10-10,76.2,61.8,49.2,57.4,50.1,45.7,88,68,40,30.04,29.86,4,0,12,0.00
2013-10-11,72.2,64.6,56.6,63.7,58.5,52.3,91,81,72,29.87,29.69,5,0,14,0.00
2013-10-12,65.8,55.4,44.2,61.5,41.7,34.3,86,62,34,30.24,29.79,8,1,16,0.00
2013-10-13,63.4,49.4,36.0,42.5,37.4,33.5,92,66,35,30.43,30.24,4,0,6,0.00
2013-10-14,64.3,54.7,45.2,48.0,39.7,34.4,73,58,41,30.35,29.79,9,2,17,0.01
2013-10-15,59.3,51.5,47.0,57.1,46.3,41.5,95,83,70,29.93,29.74,4,1,13,0.36
2013-10-16,50.1,46.1,39.2,43.7,41.8,37.6,95,85,74,30.01,29.93,4,1,13,0.00
2013-10-17,62.3,47.4,35.7,44.1,39.1,34.4,96,76,40,29.96,29.83,6,1,14,0.00
2013-10-18,49.8,42.2,37.1,42.9,35.0,27.1,92,77,47,30.06,29.96,8,1,14,0.00
2013-10-19,57.7,44.7,35.0,39.1,34.5,30.2,89,69,38,29.97,29.78,5,0,13,0.00
2013-10-20,60.2,48.8,39.4,47.8,39.4,33.1,84,71,53,29.94,29.71,6,0,12,0.00
2013-10-21,51.1,42.2,35.5,36.9,31.0,23.3,84,66,43,30.07,29.94,8,1,17,0.00
2013-10-22,43.1,40.1,37.1,38.9,35.5,29.6,86,84,73,30.08,29.86,6,1,10,0.09
2013-10-23,42.7,36.9,30.3,36.6,32.5,27.9,94,85,62,30.17,30.07,7,0,10,0.04
2013-10-24,44.7,36.5,31.1,32.4,29.6,26.8,92,77,58,30.39,30.17,6,1,14,0.01
2013-10-25,54.9,40.9,26.2,34.3,29.6,24.7,94,68,41,30.42,30.04,7,1,15,0.00
2013-10-26,51.5,44.0,32.3,34.8,30.8,27.0,87,61,40,30.15,29.95,9,1,16,0.00
2013-10-27,61.4,42.9,27.4,38.1,31.9,25.6,93,69,36,30.13,29.86,5,0,10,0.00
2013-10-28,54.9,43.8,37.1,40.0,35.7,32.2,89,74,54,30.28,29.99,6,1,12,0.00
2013-10-29,55.6,47.3,39.6,50.3,41.7,35.3,90,81,72,30.27,30.00,6,1,12,0.00
2013-10-30,60.9,55.7,52.1,59.1,54.0,50.0,96,94,88,30.00,29.63,6,1,12,0.67
2013-10-31,52.6,44.9,41.6,51.5,42.8,40.0,96,92,83,29.65,29.45,5,0,13,0.01
2013-11-1,56.0,46.9,40.0,42.2,39.6,36.9,90,76,52,29.87,29.51,7,1,15,0.01
2013-11-2,52.4,44.9,37.3,40.8,37.0,31.6,88,75,46,30.13,29.87,7,1,14,0.00
2013-11-3,56.2,45.9,34.6,37.5,34.7,31.8,91,67,43,30.15,29.90,8,2,18,0.00
2013-11-4,55.1,49.8,45.3,47.7,43.4,37.2,92,79,62,30.14,29.88,6,1,12,0.08
2013-11-5,56.6,49.1,42.4,55.2,45.9,39.8,95,89,77,30.16,29.76,7,1,12,0.64
2013-11-6,44.1,37.1,29.1,40.6,31.9,27.4,94,83,54,30.28,29.84,9,2,17,0.01
2013-11-7,46.4,34.6,28.1,36.6,29.2,25.2,95,82,51,30.35,30.25,8,1,13,0.00
2013-11-8,59.2,44.0,26.4,38.1,31.5,24.0,91,64,42,30.31,29.79,8,1,20,0.00
2013-11-9,56.7,47.6,37.7,40.0,35.7,29.5,79,64,46,30.30,29.84,8,2,17,0.00
2013-11-10,48.5,39.9,26.7,33.5,29.1,23.9,90,66,49,30.44,30.16,6,1,13,0.00
2013-11-11,48.2,33.1,19.0,38.3,25.7,11.8,87,74,58,30.73,30.09,18,4,21,0.00
2013-11-12,28.9,19.8,11.0,15.6,12.0,7.6,86,72,51,30.90,30.63,6,1,10,0.00
2013-11-13,49.5,34.5,18.9,25.5,18.1,12.0,76,53,37,30.63,30.06,8,2,14,0.00
2013-11-14,52.9,42.6,35.1,31.6,26.6,19.9,76,54,39,30.06,29.89,6,1,12,0.00
2013-11-15,56.2,42.6,29.7,39.1,33.2,26.7,90,71,46,29.92,29.72,5,1,9,0.00
2013-11-16,66.2,54.9,43.6,57.7,49.3,39.1,89,82,69,29.71,29.29,9,2,16,0.01
2013-11-17,51.7,47.2,40.0,49.5,42.6,35.3,95,84,73,29.96,29.24,10,2,18,0.37
2013-11-18,45.8,38.1,32.4,35.3,31.7,29.1,89,78,61,30.28,29.96,8,1,15,0.00
2013-11-19,54.6,43.2,32.0,34.0,31.0,28.8,89,64,42,30.27,30.01,9,3,15,0.00
2013-11-20,46.5,41.0,36.3,37.6,29.5,19.6,95,66,45,30.01,29.88,8,3,15,0.05
2013-11-21,38.0,31.3,25.3,36.7,29.6,23.6,96,93,89,30.48,30.00,12,3,20,0.01
2013-11-22,25.1,20.0,14.8,23.6,16.0,10.7,94,85,68,30.69,30.48,11,2,21,0.00
2013-11-23,18.4,13.3,6.8,12.5,5.9,1.5,87,73,50,30.90,30.64,9,2,16,0.00
2013-11-24,27.4,17.0,5.5,13.7,8.3,2.3,89,70,46,30.83,30.31,7,1,12,0.00
2013-11-25,38.1,30.2,23.4,28.3,22.6,13.2,91,74,59,30.31,30.11,5,1,12,0.09
2013-11-26,29.5,24.3,16.3,24.3,15.8,8.9,93,70,51,30.41,30.16,12,3,21,0.00
2013-11-27,26.4,19.7,10.0,16.0,10.8,6.2,85,69,53,30.45,30.11,5,1,8,0.00
2013-11-28,31.7,24.9,18.1,18.7,16.3,13.5,83,70,55,30.56,30.09,9,2,16,0.00
2013-11-29,38.7,27.6,14.3,26.3,20.0,11.4,89,74,55,30.57,30.25,6,1,12,0.01
2013-11-30,50.6,37.2,28.9,34.0,29.3,24.4,89,74,51,30.25,30.06,4,0,8,0.01
2013-12-1,40.9,33.9,25.5,30.9,28.1,23.0,91,79,65,30.18,29.92,4,0,7,0.00
2013-12-2,50.4,39.5,32.6,40.8,34.0,28.5,92,81,66,29.92,29.55,8,1,12,0.00
2013-12-3,41.1,38.4,35.6,39.0,37.0,34.1,96,94,89,29.67,29.53,5,0,10,0.00
2013-12-4,38.1,30.8,18.2,37.0,28.6,12.5,96,91,78,29.97,29.53,10,2,21,0.02
2013-12-5,18.2,13.4,7.4,12.8,6.0,-0.5,79,72,65,30.47,29.95,12,4,20,0.00
2013-12-6,12.9,7.0,1.5,2.6,-1.2,-5.2,75,69,59,30.76,30.45,8,3,14,0.00
2013-12-7,12.7,5.9,-2.5,2.2,-2.8,-7.3,80,67,52,30.85,30.59,7,1,12,0.00
2013-12-8,19.3,15.6,11.8,15.8,10.6,1.8,90,81,63,30.60,30.06,6,1,13,0.00
2013-12-9,15.4,4.9,-0.6,12.7,-0.8,-5.3,89,77,59,30.37,30.13,11,1,16,0.00
2013-12-10,22.6,17.7,3.4,14.9,9.0,-3.1,80,69,55,30.30,30.08,14,2,24,0.02
2013-12-11,24.2,7.9,1.9,21.9,1.6,-5.0,91,75,62,30.68,30.26,14,2,24,0.00
2013-12-12,29.3,17.7,2.8,19.1,10.2,-3.0,86,73,60,30.57,30.17,3,0,9,0.03
2013-12-13,30.5,24.1,17.4,25.4,19.9,13.9,88,84,78,30.17,29.98,9,1,16,0.00
2013-12-14,24.0,19.9,12.9,20.3,16.0,8.2,92,85,78,30.21,30.08,12,3,17,0.00
2013-12-15,18.9,14.9,10.8,11.8,9.0,6.1,84,77,69,30.21,30.08,9,1,15,0.00
2013-12-16,29.2,20.9,12.9,25.0,17.4,9.1,91,86,82,30.16,30.03,8,1,12,0.00
2013-12-17,37.2,28.4,19.7,28.2,20.5,14.7,94,74,47,30.25,30.12,16,3,27,0.01
2013-12-18,48.1,34.5,19.4,33.3,25.7,13.9,89,71,54,30.20,29.76,8,1,18,0.00
2013-12-19,38.2,32.2,28.2,31.5,28.8,26.4,93,87,76,29.88,29.76,8,2,15,0.01
2013-12-20,28.2,24.1,20.6,26.3,22.1,18.4,93,92,91,29.95,29.82,8,2,15,0.00
2013-12-21,25.2,22.5,19.9,23.4,20.0,17.1,94,90,85,29.94,29.79,8,2,15,0.00
2013-12-22,25.1,18.1,5.8,23.6,14.6,1.1,94,86,77,30.39,29.79,13,5,22,0.00
2013-12-23,6.8,1.9,-5.4,1.1,-5.9,-12.5,83,70,56,30.65,30.39,12,2,20,0.00
2013-12-24,17.2,3.8,-12.0,14.9,-2.8,-16.9,91,74,56,30.65,30.28,5,1,12,0.00
2013-12-25,34.2,24.7,17.2,29.7,20.6,15.0,93,84,71,30.31,30.19,14,1,26,0.07
2013-12-26,37.9,27.3,17.9,27.2,21.9,14.0,92,81,64,30.27,30.12,4,0,12,0.16
2013-12-27,48.8,33.1,17.1,31.3,25.0,14.9,94,74,47,30.28,30.10,6,0,14,0.13
2013-12-28,50.7,39.0,25.4,32.2,29.3,20.8,86,69,48,30.10,29.79,20,2,30,0.01
2013-12-29,24.8,8.9,0.2,20.7,-0.1,-10.1,84,67,47,30.40,29.98,18,7,31,0.00
2013-12-30,16.8,8.1,-0.8,13.3,1.8,-10.8,89,75,60,30.39,30.19,6,0,12,0.00
2013-12-31,14.7,9.9,5.8,8.2,5.1,2.5,89,81,73,30.38,30.22,8,1,15,0.00
2014-1-1,10.5,7.9,4.9,6.1,3.7,0.2,86,82,79,30.44,30.25,9,3,18,0.00
2014-1-2,9.0,3.3,-4.2,0.5,-2.8,-7.8,85,75,62,30.56,30.40,10,2,15,0.00